owner,sensor,date,latitude,longitude,air_pressure(mBar),qcFlag 
WAVCIS,ioos:station:WAVCIS:CSI15:1,2011-10-01T00:00:00Z,28.8332,-90.8320,1010.53,11111222 
WAVCIS,ioos:station:WAVCIS:CSI15:1,2011-10-01T01:00:00Z,28.8332,-90.8320,1011.06,11111222 
WAVCIS,ioos:station:WAVCIS:CSI15:1,2011-10-01T02:00:00Z,28.8332,-90.8320,1012.05,11111222 
WAVCIS,ioos:station:WAVCIS:CSI15:1,2011-10-01T03:00:00Z,28.8332,-90.8320,1012.7,11111222 
WAVCIS,ioos:station:WAVCIS:CSI15:1,2011-10-01T04:00:00Z,28.8332,-90.8320,1012.82,11111222 
WAVCIS,ioos:station:WAVCIS:CSI15:1,2011-10-01T05:00:00Z,28.8332,-90.8320,1013.05,11111222 
WAVCIS,ioos:station:WAVCIS:CSI15:1,2011-10-01T06:00:00Z,28.8332,-90.8320,1013.33,11111222 
WAVCIS,ioos:station:WAVCIS:CSI15:1,2011-10-01T07:00:00Z,28.8332,-90.8320,1013.44,11111222 
WAVCIS,ioos:station:WAVCIS:CSI15:1,2011-10-01T08:00:00Z,28.8332,-90.8320,1013.14,11111222 
WAVCIS,ioos:station:WAVCIS:CSI15:1,2011-10-01T09:00:00Z,28.8332,-90.8320,1012.86,11111222 
WAVCIS,ioos:station:WAVCIS:CSI15:1,2011-10-01T10:00:00Z,28.8332,-90.8320,1013.31,11111222 
WAVCIS,ioos:station:WAVCIS:CSI15:1,2011-10-01T11:00:00Z,28.8332,-90.8320,1013.8,11111222 
WAVCIS,ioos:station:WAVCIS:CSI15:1,2011-10-01T12:00:00Z,28.8332,-90.8320,1014.52,11111222 
WAVCIS,ioos:station:WAVCIS:CSI15:1,2011-10-01T13:00:00Z,28.8332,-90.8320,1015.39,11111222 
WAVCIS,ioos:station:WAVCIS:CSI15:1,2011-10-01T14:00:00Z,28.8332,-90.8320,1016.32,11111222 
WAVCIS,ioos:station:WAVCIS:CSI15:1,2011-10-01T15:00:00Z,28.8332,-90.8320,1016.95,11111222 
WAVCIS,ioos:station:WAVCIS:CSI15:1,2011-10-01T16:00:00Z,28.8332,-90.8320,1017.42,11111222 
WAVCIS,ioos:station:WAVCIS:CSI15:1,2011-10-01T17:00:00Z,28.8332,-90.8320,1017.34,11111222 
WAVCIS,ioos:station:WAVCIS:CSI15:1,2011-10-01T18:00:00Z,28.8332,-90.8320,1017.08,11111222 
WAVCIS,ioos:station:WAVCIS:CSI15:1,2011-10-01T19:00:00Z,28.8332,-90.8320,1016.19,11111222 
WAVCIS,ioos:station:WAVCIS:CSI15:1,2011-10-01T20:00:00Z,28.8332,-90.8320,1015.79,11111222 
WAVCIS,ioos:station:WAVCIS:CSI15:1,2011-10-01T21:00:00Z,28.8332,-90.8320,1015.57,11111222 
WAVCIS,ioos:station:WAVCIS:CSI15:1,2011-10-01T22:00:00Z,28.8332,-90.8320,1015.52,11111222 
WAVCIS,ioos:station:WAVCIS:CSI15:1,2011-10-01T23:00:00Z,28.8332,-90.8320,1015.59,11111222 
WAVCIS,ioos:station:WAVCIS:CSI15:1,2011-10-02T00:00:00Z,28.8332,-90.8320,1015.94,11111222 
WAVCIS,ioos:station:WAVCIS:CSI15:1,2011-10-02T01:00:00Z,28.8332,-90.8320,1016.23,11111222 
WAVCIS,ioos:station:WAVCIS:CSI15:1,2011-10-02T02:00:00Z,28.8332,-90.8320,1016.54,11111222 
WAVCIS,ioos:station:WAVCIS:CSI15:1,2011-10-02T03:00:00Z,28.8332,-90.8320,1016.93,11111222 
WAVCIS,ioos:station:WAVCIS:CSI15:1,2011-10-02T04:00:00Z,28.8332,-90.8320,1016.85,11111222 
WAVCIS,ioos:station:WAVCIS:CSI15:1,2011-10-02T05:00:00Z,28.8332,-90.8320,1016.79,11111222 
WAVCIS,ioos:station:WAVCIS:CSI15:1,2011-10-02T06:00:00Z,28.8332,-90.8320,1016.56,11111222 
WAVCIS,ioos:station:WAVCIS:CSI15:1,2011-10-02T07:00:00Z,28.8332,-90.8320,1016.38,11111222 
WAVCIS,ioos:station:WAVCIS:CSI15:1,2011-10-02T08:00:00Z,28.8332,-90.8320,1016.32,11111222 
WAVCIS,ioos:station:WAVCIS:CSI15:1,2011-10-02T09:00:00Z,28.8332,-90.8320,1016.23,11111222 
WAVCIS,ioos:station:WAVCIS:CSI15:1,2011-10-02T10:00:00Z,28.8332,-90.8320,1016.39,11111222 
WAVCIS,ioos:station:WAVCIS:CSI15:1,2011-10-02T11:00:00Z,28.8332,-90.8320,1016.9,11111222 
WAVCIS,ioos:station:WAVCIS:CSI15:1,2011-10-02T12:00:00Z,28.8332,-90.8320,1017.46,11111222 
WAVCIS,ioos:station:WAVCIS:CSI15:1,2011-10-02T13:00:00Z,28.8332,-90.8320,1018.11,11111222 
WAVCIS,ioos:station:WAVCIS:CSI15:1,2011-10-02T14:00:00Z,28.8332,-90.8320,1018.94,11111222 
WAVCIS,ioos:station:WAVCIS:CSI15:1,2011-10-02T15:00:00Z,28.8332,-90.8320,1019.37,11111222 
WAVCIS,ioos:station:WAVCIS:CSI15:1,2011-10-02T16:00:00Z,28.8332,-90.8320,1019.6,11111222 
WAVCIS,ioos:station:WAVCIS:CSI15:1,2011-10-02T17:00:00Z,28.8332,-90.8320,1019.44,11111222 
WAVCIS,ioos:station:WAVCIS:CSI15:1,2011-10-02T18:00:00Z,28.8332,-90.8320,1018.96,11111222 
WAVCIS,ioos:station:WAVCIS:CSI15:1,2011-10-02T19:00:00Z,28.8332,-90.8320,1018.36,11111222 
WAVCIS,ioos:station:WAVCIS:CSI15:1,2011-10-02T20:00:00Z,28.8332,-90.8320,1018.25,11111222 
WAVCIS,ioos:station:WAVCIS:CSI15:1,2011-10-02T21:00:00Z,28.8332,-90.8320,1017.75,11111222 
WAVCIS,ioos:station:WAVCIS:CSI15:1,2011-10-02T22:00:00Z,28.8332,-90.8320,1017.58,11111222 
WAVCIS,ioos:station:WAVCIS:CSI15:1,2011-10-02T23:00:00Z,28.8332,-90.8320,1017.6,11111222 
WAVCIS,ioos:station:WAVCIS:CSI15:1,2011-10-03T00:00:00Z,28.8332,-90.8320,1017.8,11111222 
WAVCIS,ioos:station:WAVCIS:CSI15:1,2011-10-03T01:00:00Z,28.8332,-90.8320,1018.03,11111222 
WAVCIS,ioos:station:WAVCIS:CSI15:1,2011-10-03T02:00:00Z,28.8332,-90.8320,1018.52,11111222 
WAVCIS,ioos:station:WAVCIS:CSI15:1,2011-10-03T03:00:00Z,28.8332,-90.8320,1018.59,11111222 
WAVCIS,ioos:station:WAVCIS:CSI15:1,2011-10-03T04:00:00Z,28.8332,-90.8320,1018.43,11111222 
WAVCIS,ioos:station:WAVCIS:CSI15:1,2011-10-03T05:00:00Z,28.8332,-90.8320,1018.31,11111222 
WAVCIS,ioos:station:WAVCIS:CSI15:1,2011-10-03T06:00:00Z,28.8332,-90.8320,1018.09,11111222 
WAVCIS,ioos:station:WAVCIS:CSI15:1,2011-10-03T07:00:00Z,28.8332,-90.8320,1018.07,11111222 
WAVCIS,ioos:station:WAVCIS:CSI15:1,2011-10-03T08:00:00Z,28.8332,-90.8320,1018.01,11111222 
WAVCIS,ioos:station:WAVCIS:CSI15:1,2011-10-03T09:00:00Z,28.8332,-90.8320,1017.98,11111222 
WAVCIS,ioos:station:WAVCIS:CSI15:1,2011-10-03T10:00:00Z,28.8332,-90.8320,1018.25,11111222 
WAVCIS,ioos:station:WAVCIS:CSI15:1,2011-10-03T11:00:00Z,28.8332,-90.8320,1018.79,11111222 
WAVCIS,ioos:station:WAVCIS:CSI15:1,2011-10-03T12:00:00Z,28.8332,-90.8320,1019.18,11111222 
WAVCIS,ioos:station:WAVCIS:CSI15:1,2011-10-03T13:00:00Z,28.8332,-90.8320,1019.87,11111222 
WAVCIS,ioos:station:WAVCIS:CSI15:1,2011-10-03T14:00:00Z,28.8332,-90.8320,1020.15,11111222 
WAVCIS,ioos:station:WAVCIS:CSI15:1,2011-10-03T15:00:00Z,28.8332,-90.8320,1020.49,11111222 
WAVCIS,ioos:station:WAVCIS:CSI15:1,2011-10-03T16:00:00Z,28.8332,-90.8320,1020.98,11111222 
WAVCIS,ioos:station:WAVCIS:CSI15:1,2011-10-03T17:00:00Z,28.8332,-90.8320,1020.83,11111222 
WAVCIS,ioos:station:WAVCIS:CSI15:1,2011-10-03T18:00:00Z,28.8332,-90.8320,1020.18,11111222 
WAVCIS,ioos:station:WAVCIS:CSI15:1,2011-10-03T19:00:00Z,28.8332,-90.8320,1019.51,11111222 
WAVCIS,ioos:station:WAVCIS:CSI15:1,2011-10-03T20:00:00Z,28.8332,-90.8320,1019.21,11111222 
WAVCIS,ioos:station:WAVCIS:CSI15:1,2011-10-03T21:00:00Z,28.8332,-90.8320,1018.76,11111222 
WAVCIS,ioos:station:WAVCIS:CSI15:1,2011-10-03T22:00:00Z,28.8332,-90.8320,1018.59,11111222 
WAVCIS,ioos:station:WAVCIS:CSI15:1,2011-10-03T23:00:00Z,28.8332,-90.8320,1018.39,11111222 
WAVCIS,ioos:station:WAVCIS:CSI15:1,2011-10-04T00:00:00Z,28.8332,-90.8320,1018.47,11111222 
WAVCIS,ioos:station:WAVCIS:CSI15:1,2011-10-04T01:00:00Z,28.8332,-90.8320,1018.98,11111222 
WAVCIS,ioos:station:WAVCIS:CSI15:1,2011-10-04T02:00:00Z,28.8332,-90.8320,1019.44,11111222 
WAVCIS,ioos:station:WAVCIS:CSI15:1,2011-10-04T03:00:00Z,28.8332,-90.8320,1019.6,11111222 
WAVCIS,ioos:station:WAVCIS:CSI15:1,2011-10-04T04:00:00Z,28.8332,-90.8320,1019.62,11111222 
WAVCIS,ioos:station:WAVCIS:CSI15:1,2011-10-04T05:00:00Z,28.8332,-90.8320,1019.55,11111222 
WAVCIS,ioos:station:WAVCIS:CSI15:1,2011-10-04T06:00:00Z,28.8332,-90.8320,1019.39,11111222 
WAVCIS,ioos:station:WAVCIS:CSI15:1,2011-10-04T07:00:00Z,28.8332,-90.8320,1019.23,11111222 
WAVCIS,ioos:station:WAVCIS:CSI15:1,2011-10-04T08:00:00Z,28.8332,-90.8320,1019.17,11111222 
WAVCIS,ioos:station:WAVCIS:CSI15:1,2011-10-04T09:00:00Z,28.8332,-90.8320,1018.98,11111222 
WAVCIS,ioos:station:WAVCIS:CSI15:1,2011-10-04T10:00:00Z,28.8332,-90.8320,1019.07,11111222 
WAVCIS,ioos:station:WAVCIS:CSI15:1,2011-10-04T11:00:00Z,28.8332,-90.8320,1019.61,11111222 
WAVCIS,ioos:station:WAVCIS:CSI15:1,2011-10-04T12:00:00Z,28.8332,-90.8320,1019.98,11111222 
WAVCIS,ioos:station:WAVCIS:CSI15:1,2011-10-04T13:00:00Z,28.8332,-90.8320,1020.29,11111222 
WAVCIS,ioos:station:WAVCIS:CSI15:1,2011-10-04T14:00:00Z,28.8332,-90.8320,1020.7,11111222 
WAVCIS,ioos:station:WAVCIS:CSI15:1,2011-10-04T15:00:00Z,28.8332,-90.8320,1021.12,11111222 
WAVCIS,ioos:station:WAVCIS:CSI15:1,2011-10-04T16:00:00Z,28.8332,-90.8320,1021.22,11111222 
WAVCIS,ioos:station:WAVCIS:CSI15:1,2011-10-04T17:00:00Z,28.8332,-90.8320,1020.82,11111222 
WAVCIS,ioos:station:WAVCIS:CSI15:1,2011-10-04T18:00:00Z,28.8332,-90.8320,1020.18,11111222 
WAVCIS,ioos:station:WAVCIS:CSI15:1,2011-10-04T19:00:00Z,28.8332,-90.8320,1019.39,11111222 
WAVCIS,ioos:station:WAVCIS:CSI15:1,2011-10-04T20:00:00Z,28.8332,-90.8320,1018.48,11111222 
WAVCIS,ioos:station:WAVCIS:CSI15:1,2011-10-04T21:00:00Z,28.8332,-90.8320,1017.99,11111222 
WAVCIS,ioos:station:WAVCIS:CSI15:1,2011-10-04T22:00:00Z,28.8332,-90.8320,1017.91,11111222 
WAVCIS,ioos:station:WAVCIS:CSI15:1,2011-10-04T23:00:00Z,28.8332,-90.8320,1017.82,11111222 
WAVCIS,ioos:station:WAVCIS:CSI15:1,2011-10-05T00:00:00Z,28.8332,-90.8320,1017.88,11111222 
WAVCIS,ioos:station:WAVCIS:CSI15:1,2011-10-05T01:00:00Z,28.8332,-90.8320,1018.23,11111222 
WAVCIS,ioos:station:WAVCIS:CSI15:1,2011-10-05T02:00:00Z,28.8332,-90.8320,1018.66,11111222 
WAVCIS,ioos:station:WAVCIS:CSI15:1,2011-10-05T03:00:00Z,28.8332,-90.8320,1018.72,11111222 
WAVCIS,ioos:station:WAVCIS:CSI15:1,2011-10-05T04:00:00Z,28.8332,-90.8320,1018.58,11111222 
WAVCIS,ioos:station:WAVCIS:CSI15:1,2011-10-05T05:00:00Z,28.8332,-90.8320,1018.4,11111222 
WAVCIS,ioos:station:WAVCIS:CSI15:1,2011-10-05T06:00:00Z,28.8332,-90.8320,1017.69,11111222 
WAVCIS,ioos:station:WAVCIS:CSI15:1,2011-10-05T07:00:00Z,28.8332,-90.8320,1017.46,11111222 
WAVCIS,ioos:station:WAVCIS:CSI15:1,2011-10-05T08:00:00Z,28.8332,-90.8320,1016.88,11111222 
WAVCIS,ioos:station:WAVCIS:CSI15:1,2011-10-05T09:00:00Z,28.8332,-90.8320,1016.67,11111222 
WAVCIS,ioos:station:WAVCIS:CSI15:1,2011-10-05T10:00:00Z,28.8332,-90.8320,1016.7,11111222 
WAVCIS,ioos:station:WAVCIS:CSI15:1,2011-10-05T11:00:00Z,28.8332,-90.8320,1017.01,11111222 
WAVCIS,ioos:station:WAVCIS:CSI15:1,2011-10-05T12:00:00Z,28.8332,-90.8320,1017.38,11111222 
WAVCIS,ioos:station:WAVCIS:CSI15:1,2011-10-05T13:00:00Z,28.8332,-90.8320,1017.72,11111222 
WAVCIS,ioos:station:WAVCIS:CSI15:1,2011-10-05T14:00:00Z,28.8332,-90.8320,1018.01,11111222 
WAVCIS,ioos:station:WAVCIS:CSI15:1,2011-10-05T15:00:00Z,28.8332,-90.8320,1018.23,11111222 
WAVCIS,ioos:station:WAVCIS:CSI15:1,2011-10-05T16:00:00Z,28.8332,-90.8320,1018.24,11111222 
WAVCIS,ioos:station:WAVCIS:CSI15:1,2011-10-05T17:00:00Z,28.8332,-90.8320,1018.0,11111222 
WAVCIS,ioos:station:WAVCIS:CSI15:1,2011-10-05T18:00:00Z,28.8332,-90.8320,1017.56,11111222 
WAVCIS,ioos:station:WAVCIS:CSI15:1,2011-10-05T19:00:00Z,28.8332,-90.8320,1016.8,11111222 
WAVCIS,ioos:station:WAVCIS:CSI15:1,2011-10-05T20:00:00Z,28.8332,-90.8320,1016.13,11111222 
WAVCIS,ioos:station:WAVCIS:CSI15:1,2011-10-05T21:00:00Z,28.8332,-90.8320,1015.64,11111222 
WAVCIS,ioos:station:WAVCIS:CSI15:1,2011-10-05T22:00:00Z,28.8332,-90.8320,1015.42,11111222 
WAVCIS,ioos:station:WAVCIS:CSI15:1,2011-10-05T23:00:00Z,28.8332,-90.8320,1015.34,11111222 
WAVCIS,ioos:station:WAVCIS:CSI15:1,2011-10-06T00:00:00Z,28.8332,-90.8320,1015.28,11111222 
WAVCIS,ioos:station:WAVCIS:CSI15:1,2011-10-06T01:00:00Z,28.8332,-90.8320,1015.58,11111222 
WAVCIS,ioos:station:WAVCIS:CSI15:1,2011-10-06T02:00:00Z,28.8332,-90.8320,1015.91,11111222 
WAVCIS,ioos:station:WAVCIS:CSI15:1,2011-10-06T03:00:00Z,28.8332,-90.8320,1015.89,11111222 
WAVCIS,ioos:station:WAVCIS:CSI15:1,2011-10-06T04:00:00Z,28.8332,-90.8320,1015.93,11111222 
WAVCIS,ioos:station:WAVCIS:CSI15:1,2011-10-06T05:00:00Z,28.8332,-90.8320,1015.87,11111222 
WAVCIS,ioos:station:WAVCIS:CSI15:1,2011-10-06T06:00:00Z,28.8332,-90.8320,1015.18,11111222 
WAVCIS,ioos:station:WAVCIS:CSI15:1,2011-10-06T07:00:00Z,28.8332,-90.8320,1014.95,11111222 
WAVCIS,ioos:station:WAVCIS:CSI15:1,2011-10-06T08:00:00Z,28.8332,-90.8320,1014.56,11111222 
WAVCIS,ioos:station:WAVCIS:CSI15:1,2011-10-06T09:00:00Z,28.8332,-90.8320,1014.43,11111222 
WAVCIS,ioos:station:WAVCIS:CSI15:1,2011-10-06T10:00:00Z,28.8332,-90.8320,1014.68,11111222 
WAVCIS,ioos:station:WAVCIS:CSI15:1,2011-10-06T11:00:00Z,28.8332,-90.8320,1014.98,11111222 
WAVCIS,ioos:station:WAVCIS:CSI15:1,2011-10-06T12:00:00Z,28.8332,-90.8320,1015.44,11111222 
WAVCIS,ioos:station:WAVCIS:CSI15:1,2011-10-06T13:00:00Z,28.8332,-90.8320,1015.85,11111222 
WAVCIS,ioos:station:WAVCIS:CSI15:1,2011-10-06T14:00:00Z,28.8332,-90.8320,1016.26,11111222 
WAVCIS,ioos:station:WAVCIS:CSI15:1,2011-10-06T15:00:00Z,28.8332,-90.8320,1016.77,11111222 
WAVCIS,ioos:station:WAVCIS:CSI15:1,2011-10-06T16:00:00Z,28.8332,-90.8320,1016.89,11111222 
WAVCIS,ioos:station:WAVCIS:CSI15:1,2011-10-06T17:00:00Z,28.8332,-90.8320,1016.68,11111222 
WAVCIS,ioos:station:WAVCIS:CSI15:1,2011-10-06T18:00:00Z,28.8332,-90.8320,1016.23,11111222 
WAVCIS,ioos:station:WAVCIS:CSI15:1,2011-10-06T19:00:00Z,28.8332,-90.8320,1015.94,11111222 
WAVCIS,ioos:station:WAVCIS:CSI15:1,2011-10-06T20:00:00Z,28.8332,-90.8320,1015.44,11111222 
WAVCIS,ioos:station:WAVCIS:CSI15:1,2011-10-06T21:00:00Z,28.8332,-90.8320,1015.2,11111222 
WAVCIS,ioos:station:WAVCIS:CSI15:1,2011-10-06T22:00:00Z,28.8332,-90.8320,1015.06,11111222 
WAVCIS,ioos:station:WAVCIS:CSI15:1,2011-10-06T23:00:00Z,28.8332,-90.8320,1015.39,11111222 
WAVCIS,ioos:station:WAVCIS:CSI15:1,2011-10-07T00:00:00Z,28.8332,-90.8320,1015.64,11111222 
WAVCIS,ioos:station:WAVCIS:CSI15:1,2011-10-07T01:00:00Z,28.8332,-90.8320,1015.95,11111222 
WAVCIS,ioos:station:WAVCIS:CSI15:1,2011-10-07T02:00:00Z,28.8332,-90.8320,1016.35,11111222 
WAVCIS,ioos:station:WAVCIS:CSI15:1,2011-10-07T03:00:00Z,28.8332,-90.8320,1016.45,11111222 
WAVCIS,ioos:station:WAVCIS:CSI15:1,2011-10-07T04:00:00Z,28.8332,-90.8320,1016.5,11111222 
WAVCIS,ioos:station:WAVCIS:CSI15:1,2011-10-07T05:00:00Z,28.8332,-90.8320,1016.2,11111222 
WAVCIS,ioos:station:WAVCIS:CSI15:1,2011-10-07T06:00:00Z,28.8332,-90.8320,1015.91,11111222 
WAVCIS,ioos:station:WAVCIS:CSI15:1,2011-10-07T07:00:00Z,28.8332,-90.8320,1015.52,11111222 
WAVCIS,ioos:station:WAVCIS:CSI15:1,2011-10-07T08:00:00Z,28.8332,-90.8320,1015.33,11111222 
WAVCIS,ioos:station:WAVCIS:CSI15:1,2011-10-07T09:00:00Z,28.8332,-90.8320,1015.22,11111222 
WAVCIS,ioos:station:WAVCIS:CSI15:1,2011-10-07T10:00:00Z,28.8332,-90.8320,1015.47,11111222 
WAVCIS,ioos:station:WAVCIS:CSI15:1,2011-10-07T11:00:00Z,28.8332,-90.8320,1015.83,11111222 
WAVCIS,ioos:station:WAVCIS:CSI15:1,2011-10-07T12:00:00Z,28.8332,-90.8320,1016.21,11111222 
WAVCIS,ioos:station:WAVCIS:CSI15:1,2011-10-07T13:00:00Z,28.8332,-90.8320,1016.69,11111222 
WAVCIS,ioos:station:WAVCIS:CSI15:1,2011-10-07T14:00:00Z,28.8332,-90.8320,1017.21,11111222 
WAVCIS,ioos:station:WAVCIS:CSI15:1,2011-10-07T15:00:00Z,28.8332,-90.8320,1017.8,11111222 
WAVCIS,ioos:station:WAVCIS:CSI15:1,2011-10-07T16:00:00Z,28.8332,-90.8320,1018.09,11111222 
WAVCIS,ioos:station:WAVCIS:CSI15:1,2011-10-07T17:00:00Z,28.8332,-90.8320,1017.89,11111222 
WAVCIS,ioos:station:WAVCIS:CSI15:1,2011-10-07T18:00:00Z,28.8332,-90.8320,1017.36,11111222 
WAVCIS,ioos:station:WAVCIS:CSI15:1,2011-10-07T19:00:00Z,28.8332,-90.8320,1016.61,11111222 
WAVCIS,ioos:station:WAVCIS:CSI15:1,2011-10-07T20:00:00Z,28.8332,-90.8320,1016.12,11111222 
WAVCIS,ioos:station:WAVCIS:CSI15:1,2011-10-07T21:00:00Z,28.8332,-90.8320,1016.12,11111222 
WAVCIS,ioos:station:WAVCIS:CSI15:1,2011-10-07T22:00:00Z,28.8332,-90.8320,1015.86,11111222 
WAVCIS,ioos:station:WAVCIS:CSI15:1,2011-10-07T23:00:00Z,28.8332,-90.8320,1015.79,11111222 
WAVCIS,ioos:station:WAVCIS:CSI15:1,2011-10-08T00:00:00Z,28.8332,-90.8320,1015.86,11111222 
WAVCIS,ioos:station:WAVCIS:CSI15:1,2011-10-08T01:00:00Z,28.8332,-90.8320,1016.21,11111222 
WAVCIS,ioos:station:WAVCIS:CSI15:1,2011-10-08T02:00:00Z,28.8332,-90.8320,1016.46,11111222 
WAVCIS,ioos:station:WAVCIS:CSI15:1,2011-10-08T03:00:00Z,28.8332,-90.8320,1016.51,11111222 
WAVCIS,ioos:station:WAVCIS:CSI15:1,2011-10-08T04:00:00Z,28.8332,-90.8320,1016.61,11111222 
WAVCIS,ioos:station:WAVCIS:CSI15:1,2011-10-08T05:00:00Z,28.8332,-90.8320,1016.31,11111222 
WAVCIS,ioos:station:WAVCIS:CSI15:1,2011-10-08T06:00:00Z,28.8332,-90.8320,1015.88,11111222 
WAVCIS,ioos:station:WAVCIS:CSI15:1,2011-10-08T07:00:00Z,28.8332,-90.8320,1015.68,11111222 
WAVCIS,ioos:station:WAVCIS:CSI15:1,2011-10-08T08:00:00Z,28.8332,-90.8320,1015.44,11111222 
WAVCIS,ioos:station:WAVCIS:CSI15:1,2011-10-08T09:00:00Z,28.8332,-90.8320,1015.07,11111222 
WAVCIS,ioos:station:WAVCIS:CSI15:1,2011-10-08T10:00:00Z,28.8332,-90.8320,1015.31,11111222 
WAVCIS,ioos:station:WAVCIS:CSI15:1,2011-10-08T11:00:00Z,28.8332,-90.8320,1015.53,11111222 
WAVCIS,ioos:station:WAVCIS:CSI15:1,2011-10-08T12:00:00Z,28.8332,-90.8320,1015.76,11111222 
WAVCIS,ioos:station:WAVCIS:CSI15:1,2011-10-08T13:00:00Z,28.8332,-90.8320,1015.76,11111222 
WAVCIS,ioos:station:WAVCIS:CSI15:1,2011-10-08T14:00:00Z,28.8332,-90.8320,1015.96,11111222 
WAVCIS,ioos:station:WAVCIS:CSI15:1,2011-10-08T15:00:00Z,28.8332,-90.8320,1016.27,11111222 
WAVCIS,ioos:station:WAVCIS:CSI15:1,2011-10-08T16:00:00Z,28.8332,-90.8320,1016.08,11111222 
WAVCIS,ioos:station:WAVCIS:CSI15:1,2011-10-08T17:00:00Z,28.8332,-90.8320,1016.11,11111222 
WAVCIS,ioos:station:WAVCIS:CSI15:1,2011-10-08T18:00:00Z,28.8332,-90.8320,1015.76,11111222 
WAVCIS,ioos:station:WAVCIS:CSI15:1,2011-10-08T19:00:00Z,28.8332,-90.8320,1014.96,11111222 
WAVCIS,ioos:station:WAVCIS:CSI15:1,2011-10-08T20:00:00Z,28.8332,-90.8320,1014.54,11111222 
WAVCIS,ioos:station:WAVCIS:CSI15:1,2011-10-08T21:00:00Z,28.8332,-90.8320,1014.16,11111222 
WAVCIS,ioos:station:WAVCIS:CSI15:1,2011-10-08T22:00:00Z,28.8332,-90.8320,1014.12,11111222 
WAVCIS,ioos:station:WAVCIS:CSI15:1,2011-10-08T23:00:00Z,28.8332,-90.8320,1013.99,11111222 
WAVCIS,ioos:station:WAVCIS:CSI15:1,2011-10-09T00:00:00Z,28.8332,-90.8320,1013.94,11111222 
WAVCIS,ioos:station:WAVCIS:CSI15:1,2011-10-09T01:00:00Z,28.8332,-90.8320,1013.99,11111222 
WAVCIS,ioos:station:WAVCIS:CSI15:1,2011-10-09T02:00:00Z,28.8332,-90.8320,1014.4,11111222 
WAVCIS,ioos:station:WAVCIS:CSI15:1,2011-10-09T03:00:00Z,28.8332,-90.8320,1014.34,11111222 
WAVCIS,ioos:station:WAVCIS:CSI15:1,2011-10-09T04:00:00Z,28.8332,-90.8320,1013.7,11111222 
WAVCIS,ioos:station:WAVCIS:CSI15:1,2011-10-09T05:00:00Z,28.8332,-90.8320,1013.45,11111222 
WAVCIS,ioos:station:WAVCIS:CSI15:1,2011-10-09T06:00:00Z,28.8332,-90.8320,1013.13,11111222 
WAVCIS,ioos:station:WAVCIS:CSI15:1,2011-10-09T07:00:00Z,28.8332,-90.8320,1013.1,11111222 
WAVCIS,ioos:station:WAVCIS:CSI15:1,2011-10-09T08:00:00Z,28.8332,-90.8320,1012.66,11111222 
WAVCIS,ioos:station:WAVCIS:CSI15:1,2011-10-09T09:00:00Z,28.8332,-90.8320,1012.5,11111222 
WAVCIS,ioos:station:WAVCIS:CSI15:1,2011-10-09T10:00:00Z,28.8332,-90.8320,1012.27,11111222 
WAVCIS,ioos:station:WAVCIS:CSI15:1,2011-10-09T11:00:00Z,28.8332,-90.8320,1012.67,11111222 
WAVCIS,ioos:station:WAVCIS:CSI15:1,2011-10-09T12:00:00Z,28.8332,-90.8320,1012.75,11111222 
WAVCIS,ioos:station:WAVCIS:CSI15:1,2011-10-09T13:00:00Z,28.8332,-90.8320,1013.02,11111222 
WAVCIS,ioos:station:WAVCIS:CSI15:1,2011-10-09T14:00:00Z,28.8332,-90.8320,1013.21,11111222 
WAVCIS,ioos:station:WAVCIS:CSI15:1,2011-10-09T15:00:00Z,28.8332,-90.8320,1013.52,11111222 
WAVCIS,ioos:station:WAVCIS:CSI15:1,2011-10-09T16:00:00Z,28.8332,-90.8320,1013.74,11111222 
WAVCIS,ioos:station:WAVCIS:CSI15:1,2011-10-09T17:00:00Z,28.8332,-90.8320,1013.32,11111222 
WAVCIS,ioos:station:WAVCIS:CSI15:1,2011-10-09T18:00:00Z,28.8332,-90.8320,1012.65,11111222 
WAVCIS,ioos:station:WAVCIS:CSI15:1,2011-10-09T19:00:00Z,28.8332,-90.8320,1011.55,11111222 
WAVCIS,ioos:station:WAVCIS:CSI15:1,2011-10-09T20:00:00Z,28.8332,-90.8320,1011.03,11111222 
WAVCIS,ioos:station:WAVCIS:CSI15:1,2011-10-09T21:00:00Z,28.8332,-90.8320,1010.77,11111222 
WAVCIS,ioos:station:WAVCIS:CSI15:1,2011-10-09T22:00:00Z,28.8332,-90.8320,1010.51,11111222 
WAVCIS,ioos:station:WAVCIS:CSI15:1,2011-10-09T23:00:00Z,28.8332,-90.8320,1010.77,11111222 
WAVCIS,ioos:station:WAVCIS:CSI15:1,2011-10-10T00:00:00Z,28.8332,-90.8320,1010.76,11111222 
WAVCIS,ioos:station:WAVCIS:CSI15:1,2011-10-10T01:00:00Z,28.8332,-90.8320,1010.98,11111222 
WAVCIS,ioos:station:WAVCIS:CSI15:1,2011-10-10T02:00:00Z,28.8332,-90.8320,1011.37,11111222 
WAVCIS,ioos:station:WAVCIS:CSI15:1,2011-10-10T03:00:00Z,28.8332,-90.8320,1011.57,11111222 
WAVCIS,ioos:station:WAVCIS:CSI15:1,2011-10-10T04:00:00Z,28.8332,-90.8320,1011.49,11111222 
WAVCIS,ioos:station:WAVCIS:CSI15:1,2011-10-10T05:00:00Z,28.8332,-90.8320,1011.16,11111222 
WAVCIS,ioos:station:WAVCIS:CSI15:1,2011-10-10T06:00:00Z,28.8332,-90.8320,1011.49,11111222 
WAVCIS,ioos:station:WAVCIS:CSI15:1,2011-10-10T07:00:00Z,28.8332,-90.8320,1011.1,11111222 
WAVCIS,ioos:station:WAVCIS:CSI15:1,2011-10-10T08:00:00Z,28.8332,-90.8320,1010.39,11111222 
WAVCIS,ioos:station:WAVCIS:CSI15:1,2011-10-10T09:00:00Z,28.8332,-90.8320,1009.88,11111222 
WAVCIS,ioos:station:WAVCIS:CSI15:1,2011-10-10T10:00:00Z,28.8332,-90.8320,1009.85,11111222 
WAVCIS,ioos:station:WAVCIS:CSI15:1,2011-10-10T11:00:00Z,28.8332,-90.8320,1010.02,11111222 
WAVCIS,ioos:station:WAVCIS:CSI15:1,2011-10-10T12:00:00Z,28.8332,-90.8320,1010.47,11111222 
WAVCIS,ioos:station:WAVCIS:CSI15:1,2011-10-10T13:00:00Z,28.8332,-90.8320,1010.93,11111222 
WAVCIS,ioos:station:WAVCIS:CSI15:1,2011-10-10T14:00:00Z,28.8332,-90.8320,1011.69,11111222 
WAVCIS,ioos:station:WAVCIS:CSI15:1,2011-10-10T15:00:00Z,28.8332,-90.8320,1011.94,11111222 
WAVCIS,ioos:station:WAVCIS:CSI15:1,2011-10-10T16:00:00Z,28.8332,-90.8320,1012.01,11111222 
WAVCIS,ioos:station:WAVCIS:CSI15:1,2011-10-10T17:00:00Z,28.8332,-90.8320,1011.72,11111222 
WAVCIS,ioos:station:WAVCIS:CSI15:1,2011-10-10T18:00:00Z,28.8332,-90.8320,1011.17,11111222 
WAVCIS,ioos:station:WAVCIS:CSI15:1,2011-10-10T19:00:00Z,28.8332,-90.8320,1010.13,11111222 
WAVCIS,ioos:station:WAVCIS:CSI15:1,2011-10-10T20:00:00Z,28.8332,-90.8320,1009.81,11111222 
WAVCIS,ioos:station:WAVCIS:CSI15:1,2011-10-10T21:00:00Z,28.8332,-90.8320,1009.55,11111222 
WAVCIS,ioos:station:WAVCIS:CSI15:1,2011-10-10T22:00:00Z,28.8332,-90.8320,1009.21,11111222 
WAVCIS,ioos:station:WAVCIS:CSI15:1,2011-10-10T23:00:00Z,28.8332,-90.8320,1009.14,11111222 
WAVCIS,ioos:station:WAVCIS:CSI15:1,2011-10-11T00:00:00Z,28.8332,-90.8320,1009.0,11111222 
WAVCIS,ioos:station:WAVCIS:CSI15:1,2011-10-11T01:00:00Z,28.8332,-90.8320,1009.12,11111222 
WAVCIS,ioos:station:WAVCIS:CSI15:1,2011-10-11T02:00:00Z,28.8332,-90.8320,1009.32,11111222 
WAVCIS,ioos:station:WAVCIS:CSI15:1,2011-10-11T03:00:00Z,28.8332,-90.8320,1009.84,11111222 
WAVCIS,ioos:station:WAVCIS:CSI15:1,2011-10-11T04:00:00Z,28.8332,-90.8320,1009.37,11111222 
WAVCIS,ioos:station:WAVCIS:CSI15:1,2011-10-11T05:00:00Z,28.8332,-90.8320,1009.14,11111222 
WAVCIS,ioos:station:WAVCIS:CSI15:1,2011-10-11T06:00:00Z,28.8332,-90.8320,1008.87,11111222 
WAVCIS,ioos:station:WAVCIS:CSI15:1,2011-10-11T07:00:00Z,28.8332,-90.8320,1008.79,11111222 
WAVCIS,ioos:station:WAVCIS:CSI15:1,2011-10-11T08:00:00Z,28.8332,-90.8320,1008.47,11111222 
WAVCIS,ioos:station:WAVCIS:CSI15:1,2011-10-11T09:00:00Z,28.8332,-90.8320,1008.39,11111222 
WAVCIS,ioos:station:WAVCIS:CSI15:1,2011-10-11T10:00:00Z,28.8332,-90.8320,1008.61,11111222 
WAVCIS,ioos:station:WAVCIS:CSI15:1,2011-10-11T11:00:00Z,28.8332,-90.8320,1009.12,11111222 
WAVCIS,ioos:station:WAVCIS:CSI15:1,2011-10-11T12:00:00Z,28.8332,-90.8320,1009.44,11111222 
WAVCIS,ioos:station:WAVCIS:CSI15:1,2011-10-11T13:00:00Z,28.8332,-90.8320,1009.67,11111222 
WAVCIS,ioos:station:WAVCIS:CSI15:1,2011-10-11T14:00:00Z,28.8332,-90.8320,1010.08,11111222 
WAVCIS,ioos:station:WAVCIS:CSI15:1,2011-10-11T15:00:00Z,28.8332,-90.8320,1010.21,11111222 
WAVCIS,ioos:station:WAVCIS:CSI15:1,2011-10-11T16:00:00Z,28.8332,-90.8320,1010.22,11111222 
WAVCIS,ioos:station:WAVCIS:CSI15:1,2011-10-11T17:00:00Z,28.8332,-90.8320,1010.02,11111222 
WAVCIS,ioos:station:WAVCIS:CSI15:1,2011-10-11T18:00:00Z,28.8332,-90.8320,1009.04,11111222 
WAVCIS,ioos:station:WAVCIS:CSI15:1,2011-10-11T19:00:00Z,28.8332,-90.8320,1008.52,11111222 
WAVCIS,ioos:station:WAVCIS:CSI15:1,2011-10-11T20:00:00Z,28.8332,-90.8320,1007.87,11111222 
WAVCIS,ioos:station:WAVCIS:CSI15:1,2011-10-11T21:00:00Z,28.8332,-90.8320,1007.79,11111222 
WAVCIS,ioos:station:WAVCIS:CSI15:1,2011-10-11T22:00:00Z,28.8332,-90.8320,1007.9,11111222 